EW4557 Weather Reports


Display with metric or nautical units.
time (UTC)temp
F
wind
direction
speed
MPH
gust
MPH
rain 1hr
in
rain 24hr
in
rain mn
in
humidity
%
barometer
mb
20260502184016 66 0 4.0 8.0 0.00 0.06 0.00 31 1025.1
20260502183056 65 0 3.0 8.0 0.00 0.07 0.00 32 1025.2
20260502182016 66 0 4.0 10.0 0.00 0.08 0.00 30 1025.5
20260502181016 65 0 3.0 12.0 0.00 0.09 0.00 32 1025.6
20260502180136 64 0 4.0 11.0 0.00 0.09 0.00 33 1025.6
20260502164056 59 0 3.0 6.0 0.00 0.12 0.00 57 1026.2
20260502163056 58 0 3.0 9.0 0.00 0.12 0.00 59 1025.9
20260502162016 57 0 2.0 8.0 0.00 0.13 0.00 62 1025.9
20260502151056 51 0 3.0 10.0 0.00 0.13 0.00 72 1025.5
20260502123016 38 0.0 0.0 0.00 0.13 0.00 92 1024.0
20260502122015 37 0.0 0.0 0.00 0.13 0.00 92 1023.5
20260502121015 37 0.0 0.0 0.00 0.13 0.00 91 1023.4
20260502115055 38 0 0.0 4.0 0.00 0.13 0.00 92 1023.6
20260502114055 37 0 2.0 4.0 0.00 0.13 0.00 93 1023.3
20260502113015 37 0 1.0 4.0 0.00 0.13 0.00 93 1023.3
20260502110015 35 0.0 0.0 0.00 0.14 0.00 91 1022.7
20260502105055 35 0.0 0.0 0.00 0.14 0.00 91 1022.5
20260502103055 35 0.0 0.0 0.00 0.15 0.00 91 1022.8
20260502102135 35 0.0 0.0 0.00 0.16 0.00 90 1022.6
20260502101015 36 0.0 0.0 0.00 0.16 0.00 90 1022.5
20260502090135 39 0 0.0 1.0 0.00 0.21 0.00 92 1022.8
20260502065135 39 0.0 0.0 0.00 0.22 0.00 89 1022.4
20260502064055 39 0.0 0.0 0.00 0.23 0.00 89 1022.4
20260502063055 40 0.0 0.0 0.00 0.24 0.00 89 1022.6
20260502062015 40 0.0 0.0 0.00 0.24 0.00 90 1022.8
20260502061015 40 0.0 0.0 0.00 0.26 0.00 90 1022.7
20260502060137 41 0.0 0.0 0.00 0.26 0.26 89 1022.6
20260502055016 41 0.0 0.0 0.01 0.27 0.26 90 1022.7
20260502054056 41 0 1.0 3.0 0.01 0.28 0.26 89 1022.6
20260502053056 41 0.0 0.0 0.01 0.32 0.26 89 1022.6
20260502052016 41 0.0 0.0 0.01 0.34 0.26 89 1022.6
20260502051016 42 0.0 0.0 0.01 0.34 0.26 89 1022.7
20260502050016 42 0.0 0.0 0.01 0.34 0.26 89 1022.6
20260502045016 42 0.0 0.0 0.00 0.33 0.25 89 1022.8
20260502043016 41 0.0 1.0 0.00 0.33 0.25 89 1022.8
20260502041016 41 0.0 0.0 0.00 0.33 0.25 87 1022.9
20260502040056 41 0.0 0.0 0.00 0.33 0.25 87 1022.8
20260502035136 42 0.0 0.0 0.00 0.33 0.25 87 1022.7
20260502034016 42 0.0 0.0 0.00 0.33 0.25 87 1022.8
20260502032016 43 0 0.0 1.0 0.00 0.33 0.25 85 1022.4
20260502031056 43 0 0.0 2.0 0.00 0.33 0.25 85 1022.5
20260502030015 44 0.0 0.0 0.00 0.33 0.25 86 1022.5
20260502025056 44 0 1.0 3.0 0.00 0.34 0.25 85 1022.4
20260502024015 45 0.0 0.0 0.00 0.35 0.25 83 1022.2
20260502023055 45 0.0 1.0 0.00 0.35 0.25 82 1022.1
20260502022015 46 0 0.0 1.0 0.00 0.35 0.25 83 1022.0
20260502021056 46 0.0 0.0 0.00 0.35 0.25 82 1022.0
20260502020055 47 0 0.0 3.0 0.00 0.35 0.25 81 1022.2
20260502015136 47 0 1.0 3.0 0.00 0.35 0.25 81 1022.1
20260502014015 48 0 1.0 3.0 0.00 0.35 0.25 81 1022.1
20260502013055 48 0 1.0 4.0 0.00 0.35 0.25 81 1022.0
20260502012135 48 0 2.0 4.0 0.00 0.35 0.25 81 1021.9
20260502011135 48 0 2.0 4.0 0.00 0.35 0.25 81 1021.7
20260502010015 48 0 1.0 2.0 0.00 0.35 0.25 80 1021.7
20260502005015 48 0 0.0 2.0 0.00 0.35 0.25 81 1021.7
20260502004055 48 0 0.0 2.0 0.00 0.35 0.25 80 1021.5
20260502003015 48 0 1.0 2.0 0.00 0.35 0.25 80 1021.2
20260502002055 48 0 0.0 2.0 0.00 0.35 0.25 80 1021.2
20260502001015 48 0 1.0 2.0 0.00 0.35 0.25 80 1021.0
20260502000055 48 0.0 2.0 0.00 0.35 0.25 80 1021.1
20260501235055 48 0 1.0 2.0 0.00 0.35 0.25 80 1021.0
20260501233135 48 0 2.0 3.0 0.00 0.35 0.25 81 1020.7
20260501232015 48 0 1.0 3.0 0.00 0.35 0.25 81 1020.8
20260501230015 47 0 2.0 3.0 0.00 0.35 0.25 83 1020.8
20260501225135 47 0 2.0 4.0 0.00 0.35 0.25 82 1020.6
20260501224015 47 0 1.0 4.0 0.00 0.35 0.25 81 1020.5
20260501223015 47 0 1.0 4.0 0.00 0.35 0.25 84 1020.4
20260501222015 47 0 1.0 3.0 0.00 0.35 0.25 85 1020.4
20260501221055 46 0 1.0 4.0 0.00 0.35 0.25 84 1020.5
20260501220055 46 0 1.0 4.0 0.00 0.35 0.25 87 1020.5
20260501215055 46 0 3.0 5.0 0.00 0.35 0.25 87 1020.7
20260501214015 45 0 2.0 4.0 0.00 0.35 0.25 87 1020.9
20260501212015 45 0 3.0 6.0 0.00 0.35 0.25 88 1021.1
20260501211015 45 0 3.0 6.0 0.00 0.35 0.25 88 1021.2
20260501210055 45 0 2.0 5.0 0.00 0.35 0.25 88 1021.1
20260501205057 45 0 4.0 6.0 0.00 0.35 0.25 90 1021.1
20260501204057 44 0 3.0 4.0 0.00 0.35 0.25 90 1021.0
20260501203017 44 0 2.0 4.0 0.01 0.35 0.25 90 1021.0
20260501202137 43 0 2.0 4.0 0.01 0.35 0.25 91 1021.0
20260501200057 43 0 2.0 4.0 0.03 0.35 0.25 91 1021.0
20260501195017 43 0 1.0 3.0 0.04 0.35 0.25 91 1021.1
20260501194137 43 0 2.0 4.0 0.05 0.35 0.25 91 1021.0
20260501193057 42 0 2.0 4.0 0.05 0.34 0.24 91 1020.6
20260501192015 42 0 1.0 4.0 0.06 0.34 0.24 90 1020.5
20260501191056 43 0 1.0 4.0 0.06 0.33 0.23 91 1020.7
20260501190056 42 0 0.0 3.0 0.05 0.32 0.22 92 1020.6